Wind_Speed
17 16 15 14 13 13 13 13 12 11 9 8 8 9 10 11 13 15 17 19 22 24 25 27 28 30 31 32 33 34 34 34 33 32 31 31 32 32 32 32 31 31 32 33 34 36 38 40 42 44 46 47 48 49 50 51 52 53 54 55 56 57 57 57 56 54 53 53 52 51 50 50 50 50 49 47 47 48 48 49 50 51 51 52 53
19 18 16 15 15 15 14 14 13 11 9 9 9 10 11 12 14 16 19 21 23 25 26 28 29 30 32 33 34 34 34 34 33 31 31 32 32 32 31 31 31 31 32 33 35 37 39 41 43 45 47 48 49 50 51 52 53 54 55 56 56 56 56 55 54 52 49 49 49 49 49 49 50 50 50 49 48 48 48 49 50 51 51 51 52
20 19 17 16 16 16 16 15 13 11 10 11 11 10 11 13 15 18 20 23 25 26 27 29 30 31 33 34 34 35 34 33 32 32 32 32 32 31 31 30 30 31 32 34 36 38 40 43 44 46 47 49 50 51 52 53 54 54 54 54 54 54 53 53 52 50 49 48 49 49 48 49 50 50 51 50 50 48 48 48 49 50 51 51 52
21 20 18 18 17 17 17 16 14 13 12 12 11 11 13 15 17 19 22 24 26 28 29 30 31 32 33 34 35 35 34 33 32 32 31 31 30 30 30 30 30 31 33 35 37 40 42 44 45 47 48 49 50 51 52 53 53 53 53 52 52 52 51 51 50 50 49 48 48 49 49 49 50 51 51 50 50 49 48 47 47 47 48 50 51
22 21 19 19 18 17 17 16 15 14 13 12 12 13 15 17 19 21 23 25 27 29 30 31 32 33 33 34 35 35 34 33 32 31 30 30 29 29 30 30 31 32 34 36 39 41 43 45 46 47 48 49 50 51 52 52 52 51 51 51 50 50 49 49 49 49 49 49 49 49 49 49 49 49 50 50 49 48 47 47 47 48 48 48 50
22 21 20 19 18 18 18 17 16 14 13 13 14 15 17 19 21 22 25 27 28 30 31 32 33 34 34 34 34 34 33 32 31 30 29 29 29 29 30 31 32 33 36 38 40 42 44 46 47 48 48 49 50 51 51 51 51 50 50 49 49 48 48 48 48 49 49 50 50 49 48 48 48 47 48 49 49 48 47 46 46 47 48 48 49
23 22 21 20 19 18 17 17 16 15 15 15 16 18 20 21 22 24 26 28 30 31 32 33 34 34 34 34 34 34 33 31 30 29 28 28 29 29 30 31 32 35 37 39 41 43 45 46 47 47 48 49 49 50 50 50 50 50 49 48 47 47 47 47 48 49 49 50 49 49 48 48 48 47 47 49 49 48 47 43 37 34 36 39 40
24 23 22 20 19 18 17 17 16 16 16 17 18 20 21 22 23 25 27 29 30 32 33 34 35 35 35 35 34 33 32 30 29 28 28 28 29 29 30 32 34 36 38 40 42 43 45 45 46 47 48 49 49 50 50 50 49 49 48 47 46 46 46 47 49 49 49 50 50 49 49 48 47 48 49 49 45 39 36 33 28 25 26 30 33
25 24 22 21 19 18 18 18 18 18 18 19 20 21 23 24 25 27 29 30 31 32 33 35 36 35 35 35 34 33 31 29 28 28 28 28 29 30 31 32 35 37 39 41 42 44 45 45 46 47 48 49 49 50 50 50 49 48 47 46 45 45 46 48 49 49 49 50 50 50 49 48 50 50 48 43 37 29 26 27 28 29 29 30 34
25 24 23 21 20 19 19 20 20 20 20 21 22 24 25 25 27 28 30 30 31 32 34 35 36 35 35 35 33 32 30 28 28 28 28 29 29 30 32 34 36 38 39 41 42 44 45 45 46 47 47 48 49 49 49 49 48 47 46 45 45 46 47 48 49 50 50 51 51 50 50 50 52 51 44 35 29 26 26 29 32 33 33 31 32
26 25 24 23 21 21 21 22 23 23 23 24 24 26 27 27 28 30 30 31 31 33 34 35 35 35 35 34 33 31 29 28 28 28 28 29 29 31 32 34 36 38 39 41 43 44 45 45 46 46 47 47 48 48 47 47 46 46 45 45 46 47 47 48 49 51 51 52 52 52 52 52 53 49 39 29 26 26 28 32 33 32 31 31 30
28 27 26 24 23 23 24 25 25 25 25 25 26 27 28 29 30 31 31 31 32 33 34 35 35 35 34 34 32 30 29 28 28 28 28 29 30 31 33 35 37 38 40 42 43 44 44 45 46 46 46 46 46 45 45 45 45 44 44 45 46 46 47 49 51 52 53 53 54 54 53 53 53 47 36 28 26 28 30 32 32 30 31 32 33
29 28 28 27 26 26 27 28 27 27 27 27 27 29 30 30 31 31 31 31 32 33 34 34 35 34 34 33 32 30 29 28 28 28 28 29 30 32 33 35 37 38 40 42 42 43 44 45 45 45 45 44 44 44 43 43 43 43 43 43 44 45 48 50 51 53 54 54 55 54 54 55 53 46 36 29 28 30 32 32 31 32 33 34 33
30 29 29 29 29 29 29 29 29 28 28 29 30 31 32 32 32 32 31 31 32 33 34 34 34 34 34 32 31 30 29 28 28 28 29 29 31 32 34 35 37 39 40 41 42 43 44 44 44 44 43 42 42 42 41 41 41 41 40 41 43 45 47 49 50 51 53 55 55 54 55 56 54 47 38 33 32 34 36 34 33 33 34 33 32
30 30 31 31 31 31 30 30 30 30 30 32 33 33 33 33 32 32 31 31 32 33 34 34 34 33 33 32 30 29 29 28 28 28 29 30 31 32 34 35 37 38 40 40 42 43 43 44 43 42 41 41 40 40 39 39 38 38 39 40 43 45 47 48 49 50 52 54 55 55 56 57 56 51 43 37 37 38 38 37 36 34 32 30 30
31 31 32 33 33 32 30 30 31 32 33 34 34 34 34 32 31 31 31 31 32 33 34 34 33 32 32 31 30 29 28 28 28 28 29 30 31 32 34 35 37 38 39 40 41 42 42 42 42 40 40 39 38 38 37 36 35 36 38 41 42 44 46 48 48 49 51 54 54 55 56 57 57 54 47 42 39 38 38 37 35 33 30 30 30
32 33 33 34 34 33 32 32 32 33 33 34 34 33 32 31 30 30 31 32 32 33 33 33 32 31 31 30 29 28 28 28 28 28 29 30 31 32 33 35 36 38 39 40 41 41 41 41 40 39 38 37 37 36 35 34 34 36 39 40 41 43 45 46 47 48 50 53 54 54 54 56 56 55 49 43 39 38 37 36 35 33 33 33 33
34 34 34 36 36 34 33 32 32 33 33 33 32 31 30 30 29 30 31 32 32 33 32 32 31 31 30 30 29 28 27 27 28 28 29 30 31 32 33 35 36 37 38 39 40 40 40 39 38 37 37 36 35 34 32 32 34 36 38 39 41 42 43 44 46 47 49 51 53 53 53 54 55 54 50 43 39 39 38 37 36 36 36 36 37
33 34 35 36 36 34 32 32 32 32 32 31 30 30 29 29 29 30 31 32 32 32 32 31 30 30 30 29 28 27 27 27 27 28 29 30 31 31 33 34 36 37 37 38 38 39 38 37 37 36 35 34 33 32 31 32 34 36 37 39 40 42 43 44 46 47 49 50 52 52 52 53 54 54 50 44 41 40 40 39 39 38 39 42 44
33 35 36 36 35 34 32 32 32 32 31 30 29 29 29 29 29 29 30 31 32 32 31 30 30 30 30 29 28 27 27 27 27 28 29 29 30 31 32 34 35 36 36 37 37 37 37 36 36 35 34 33 32 31 31 33 34 36 37 39 40 42 44 46 47 48 50 51 53 53 53 53 54 54 51 46 42 41 41 42 42 43 45 47 47
35 36 36 35 35 34 33 32 32 31 30 30 29 29 29 29 28 29 30 31 31 31 31 31 31 31 30 29 28 27 27 27 27 27 28 29 29 30 32 33 34 35 35 36 36 36 36 35 35 34 33 32 31 30 31 33 34 36 38 39 40 42 44 46 48 49 50 52 53 53 54 54 54 55 53 49 46 44 44 45 45 45 46 45 45
36 36 36 36 36 35 33 33 32 31 30 30 29 29 29 28 28 29 30 31 31 31 31 31 31 31 30 29 28 27 27 27 27 27 28 28 29 30 31 32 33 34 34 34 34 34 34 34 34 33 31 31 30 30 31 33 34 36 37 39 40 42 44 46 47 49 50 51 52 53 54 54 55 55 55 53 50 47 46 47 47 45 43 40 43
37 37 37 38 38 36 34 33 32 32 31 31 30 29 29 29 29 29 30 31 32 31 31 31 32 32 31 30 29 28 27 27 27 27 27 27 28 29 30 31 32 32 32 32 33 33 33 32 32 31 30 30 30 30 31 32 34 35 36 37 39 41 43 44 46 48 49 51 52 53 54 55 56 56 56 56 54 51 48 48 48 46 41 39 41
37 38 38 37 36 34 34 34 33 33 33 32 30 29 29 29 30 30 31 32 32 32 31 31 32 32 32 31 30 29 27 26 26 27 27 27 27 27 28 30 30 30 30 31 31 31 31 31 31 30 30 30 29 29 30 32 33 35 35 36 38 39 41 43 45 46 48 50 51 53 54 55 57 57 58 57 56 53 50 48 48 46 41 40 41
39 39 38 37 36 35 35 35 35 34 33 32 30 29 30 31 31 31 32 32 33 32 31 32 33 33 33 32 32 31 28 26 26 26 26 26 26 26 27 29 29 28 28 29 29 29 29 29 30 29 29 29 29 29 30 31 32 34 34 35 36 38 39 41 43 45 47 49 51 53 54 56 57 58 58 57 56 55 52 49 48 47 42 40 41
39 39 39 39 40 40 38 37 36 34 33 31 30 30 31 32 32 32 32 33 33 31 31 32 33 34 34 33 33 32 29 26 25 25 25 25 24 25 26 27 26 26 27 27 27 27 27 27 28 29 29 29 30 29 29 30 32 33 34 35 35 37 38 40 42 44 46 49 50 52 54 55 57 57 57 57 56 56 55 51 49 48 44 39 38
39 39 39 39 40 40 38 36 35 34 32 31 31 31 32 32 32 32 32 33 33 32 33 34 34 34 35 34 34 33 29 26 25 25 24 24 23 24 25 25 24 24 25 26 25 25 25 26 27 28 29 29 30 29 29 30 31 32 33 34 35 36 37 39 41 43 45 48 50 51 53 54 55 56 57 57 57 57 57 54 51 49 47 42 38
39 39 39 39 39 39 38 37 36 34 32 32 31 31 32 32 32 32 33 33 34 33 34 35 34 35 36 36 36 33 29 26 25 24 23 23 22 23 24 23 23 23 24 24 24 23 24 25 26 27 29 30 30 30 30 30 31 32 33 34 34 35 37 39 41 42 44 46 48 50 52 53 54 55 56 57 57 57 57 57 54 51 49 45 40
38 39 39 39 39 39 38 37 36 34 32 31 31 31 33 32 32 33 34 34 35 35 35 35 35 36 37 38 36 33 29 25 24 23 22 22 22 22 23 22 22 22 23 23 22 22 23 24 26 27 28 29 30 31 31 31 31 31 32 33 34 35 36 37 39 40 42 44 46 48 50 51 53 54 54 55 56 57 57 57 56 54 51 47 43
38 39 40 40 40 40 39 38 36 33 32 31 30 32 33 32 33 34 35 35 36 36 35 35 36 37 39 38 36 33 28 24 23 22 21 21 21 22 21 21 21 22 22 22 22 22 23 24 25 27 28 29 30 31 31 31 31 31 32 32 33 34 35 36 38 40 41 43 45 46 48 50 51 52 53 54 55 56 56 56 56 56 53 50 46
37 38 40 40 39 40 39 37 35 33 32 31 31 32 33 33 34 35 35 36 36 35 35 35 37 38 38 36 34 31 27 23 22 21 21 21 21 21 21 21 21 22 22 21 21 22 23 24 26 27 28 29 30 30 30 31 31 31 32 32 33 34 35 36 37 38 40 42 44 45 47 48 49 50 52 53 53 54 55 55 54 55 55 52 49
37 38 39 39 39 38 36 34 33 33 32 31 32 33 33 34 35 35 35 35 35 35 35 36 38 38 36 33 33 30 25 23 22 21 20 20 21 21 21 21 21 21 22 22 21 22 23 24 26 27 29 30 30 30 30 30 31 31 32 32 33 33 34 35 36 37 39 40 42 44 45 46 48 49 50 51 52 52 53 54 53 54 54 53 52
38 38 39 40 42 41 38 34 32 31 31 32 32 32 33 33 35 36 36 35 34 35 36 36 37 36 34 32 32 28 24 23 22 21 20 20 20 20 21 21 21 21 22 22 22 23 24 25 26 28 29 30 30 30 30 31 31 31 32 32 32 33 34 34 35 37 38 40 41 42 44 45 46 47 47 48 50 50 51 52 52 52 53 53 52
38 38 38 39 40 38 35 33 31 30 31 31 32 33 34 35 36 36 35 35 35 35 35 37 38 38 35 34 32 28 25 24 22 21 20 20 20 21 21 20 21 22 22 23 23 24 25 26 27 29 30 30 30 30 31 31 31 31 32 32 33 33 34 34 35 36 37 39 40 41 42 43 44 45 45 46 47 48 49 50 51 51 52 52 52
39 38 37 38 37 35 32 31 31 30 30 31 32 34 36 36 35 35 34 35 35 35 36 38 38 36 34 33 31 27 25 24 22 21 21 20 20 21 20 20 21 22 22 23 24 24 26 27 28 29 30 31 31 31 31 31 31 32 32 32 33 33 33 34 35 35 36 37 38 39 40 42 43 43 44 44 45 46 46 47 49 49 50 51 51
40 40 40 41 42 40 37 35 33 31 31 32 34 35 35 34 34 35 35 36 36 36 37 39 36 31 30 31 31 29 27 25 23 22 21 21 21 21 20 20 21 21 22 23 24 25 26 27 28 30 31 31 31 31 31 31 32 32 32 33 33 33 34 34 34 35 35 36 37 38 39 40 41 41 42 43 43 44 44 45 46 47 47 48 49
41 41 41 43 44 42 40 38 36 34 33 34 34 34 34 35 36 37 37 36 34 34 35 36 34 31 30 31 32 31 29 26 23 22 22 21 21 21 21 20 21 22 22 23 24 25 27 28 29 30 31 31 31 32 32 32 32 32 32 33 33 33 34 34 34 34 35 35 36 37 38 38 39 39 40 41 41 42 42 42 43 44 44 45 45
41 40 39 39 40 39 38 38 38 36 35 35 35 36 36 37 38 37 35 33 32 32 33 34 35 35 34 33 32 31 29 26 24 23 23 22 22 21 21 21 21 22 23 24 24 26 27 29 29 31 31 31 32 32 33 33 33 33 33 33 33 33 34 34 34 35 35 35 36 36 37 37 38 38 38 39 39 40 40 40 40 40 41 42 43
39 38 38 39 40 39 38 38 37 36 35 35 35 36 37 37 35 34 33 33 34 34 33 33 35 37 38 36 33 31 30 28 26 25 23 23 22 22 22 22 22 23 23 24 25 26 28 29 30 31 32 32 32 33 33 33 33 33 34 34 34 34 34 34 34 35 35 35 35 35 36 36 37 37 37 37 37 38 38 39 39 39 39 40 41
37 37 38 41 43 43 41 38 37 37 36 36 35 35 36 37 36 35 36 37 38 37 35 34 35 37 40 41 38 34 32 30 27 25 24 24 23 23 22 23 24 24 24 25 26 27 28 29 30 31 32 32 33 34 34 34 34 34 34 35 35 35 35 34 34 35 35 35 35 35 35 35 36 36 36 36 36 36 36 37 37 38 37 38 38
36 37 37 37 40 42 42 41 41 41 39 37 36 36 37 38 39 40 40 40 40 39 38 38 38 40 43 44 41 37 33 30 28 26 25 25 24 23 23 24 25 25 25 26 27 28 29 30 31 32 32 33 34 35 35 35 34 34 35 35 36 36 36 35 35 35 35 35 35 35 35 35 35 35 36 35 35 35 35 35 36 36 36 36 35
35 35 34 33 36 39 40 40 39 39 38 37 36 36 37 39 40 41 40 39 40 40 40 40 42 44 45 45 42 38 34 31 28 27 26 26 25 24 24 25 26 26 26 27 28 29 30 30 31 32 33 33 34 35 36 35 35 35 35 36 36 36 36 36 35 35 35 36 36 35 35 35 35 35 35 35 35 35 34 34 34 34 34 34 34
31 32 32 33 35 38 39 38 36 35 34 33 34 35 36 37 39 39 39 39 40 39 40 41 43 44 45 44 42 38 35 32 30 28 27 27 26 25 26 27 27 27 27 28 29 30 30 31 32 33 34 34 35 36 37 36 36 36 36 37 37 37 37 36 36 36 36 36 36 36 35 35 35 35 35 35 35 34 34 33 33 33 32 32 32
30 31 32 34 35 36 36 35 35 34 33 33 34 35 36 37 37 37 37 37 37 36 37 40 42 42 42 44 42 38 35 33 31 30 29 28 27 27 27 28 28 28 28 29 30 31 31 32 33 34 35 36 37 37 38 37 37 37 38 38 38 39 38 38 37 36 36 35 36 36 36 35 35 34 35 35 34 34 33 33 32 32 31 30 30
31 32 34 36 36 36 36 36 37 37 37 37 37 37 36 37 37 36 35 33 33 34 36 38 39 40 41 43 42 39 37 35 33 32 30 29 28 28 29 29 29 29 29 30 31 32 32 33 34 35 36 37 38 38 39 39 39 39 39 39 40 40 40 39 38 37 36 36 36 36 36 36 36 35 34 34 34 34 33 33 32 31 30 30 29
32 32 34 35 36 36 37 37 38 38 39 40 40 39 38 38 37 36 34 33 33 34 36 37 38 39 41 43 42 41 38 36 35 33 31 30 30 30 30 31 30 30 30 31 32 33 34 35 36 37 38 38 39 39 40 40 41 42 41 41 41 42 41 40 39 38 37 36 36 37 37 37 37 36 35 34 34 34 33 33 32 31 30 30 30
32 32 34 34 34 34 35 36 37 37 38 39 39 39 38 37 35 33 32 33 35 36 37 37 38 40 42 43 43 42 40 37 35 34 32 32 32 32 32 31 31 31 32 33 34 34 35 36 37 38 39 39 40 40 41 42 43 43 43 43 43 43 43 42 40 39 38 37 37 38 38 38 38 37 36 35 34 34 33 33 33 33 32 32 31
31 32 33 34 34 34 35 36 36 36 35 35 35 34 34 33 32 31 32 33 35 36 36 37 39 41 42 43 44 43 41 38 35 34 34 34 34 33 33 32 32 32 33 34 35 36 37 38 39 40 40 40 41 41 42 43 44 44 45 45 45 45 45 43 42 40 39 39 38 38 39 38 37 37 36 35 35 35 35 35 35 35 34 34 33
31 31 32 32 32 33 35 36 36 36 36 35 34 32 32 31 31 32 33 33 34 34 36 37 40 42 43 44 45 44 41 38 36 35 35 35 34 34 34 33 33 34 35 35 36 37 38 39 40 41 41 42 42 42 43 44 45 45 46 46 47 47 46 45 43 41 40 40 40 39 39 38 37 36 36 36 36 36 36 36 36 36 36 36 35
32 32 32 31 31 32 34 36 37 38 37 35 33 33 32 32 32 32 32 32 33 34 36 38 40 42 43 44 45 44 41 38 37 36 36 36 36 35 35 35 35 36 36 37 37 38 39 40 41 42 42 43 43 44 44 45 46 46 47 48 48 48 47 46 44 43 42 41 41 40 39 38 38 37 37 37 37 37 37 37 37 37 37 36 36
34 34 34 33 33 33 34 35 36 36 37 36 34 34 33 32 31 31 31 32 33 35 37 38 40 41 43 44 45 43 41 38 37 37 37 37 37 36 36 36 37 37 38 38 39 39 40 41 42 43 43 44 45 45 45 46 47 48 49 49 49 49 48 46 44 44 44 43 42 40 40 39 39 38 38 39 38 38 38 38 38 37 37 37 36
Wind_Direction
213 213 217 221 226 231 235 236 235 234 236 248 265 274 280 286 293 301 307 313 315 315 315 315 315 315 315 314 314 314 313 312 310 309 309 309 311 312 313 315 316 317 318 317 317 317 319 320 320 320 320 320 319 319 318 317 317 316 315 315 315 314 313 313 312 311 310 309 307 306 304 302 300 299 296 294 292 290 288 285 283 280 278 275 272
215 217 219 222 228 232 233 232 229 229 238 253 263 269 279 290 299 306 312 314 314 314 314 315 315 315 315 314 314 314 314 312 310 309 309 310 311 312 313 315 316 317 317 317 318 319 320 320 320 320 320 320 320 319 319 319 318 318 318 317 317 316 315 315 313 312 312 311 310 308 307 305 302 300 298 295 292 290 287 285 283 281 278 276 274
218 218 219 222 228 231 230 228 227 232 243 253 260 270 283 294 301 307 311 312 311 313 314 315 316 315 315 314 314 315 314 312 310 309 309 310 311 312 313 315 316 316 316 317 319 320 320 320 321 321 321 321 321 321 320 320 320 320 320 319 319 318 317 317 316 315 314 313 311 310 308 306 304 302 300 298 295 292 289 286 283 281 278 275 273
221 218 218 224 229 230 229 230 233 237 244 251 262 276 287 296 301 306 308 309 310 312 314 315 316 315 314 314 314 315 314 311 309 309 309 310 311 313 314 315 315 316 317 319 320 320 320 321 322 322 322 322 322 322 322 321 322 322 322 321 320 320 319 319 318 317 316 316 315 315 313 311 309 307 304 301 299 297 293 290 287 283 279 276 273
222 220 221 225 227 231 233 234 238 241 248 257 269 281 290 296 301 304 306 307 308 310 312 314 315 315 314 314 314 314 313 311 309 309 310 311 312 313 313 313 315 316 318 319 320 321 322 323 323 323 323 323 323 323 323 323 323 323 323 323 322 321 320 320 320 320 321 320 320 319 317 315 312 310 307 304 302 299 296 293 290 286 282 279 275
224 222 224 226 228 233 236 239 243 248 256 266 276 285 291 296 300 303 304 305 306 308 311 313 314 314 314 314 314 314 312 310 309 309 310 312 312 312 312 313 315 317 318 319 321 322 324 324 324 324 324 324 324 324 325 325 325 325 324 323 323 322 321 322 323 324 324 323 321 321 320 318 315 313 309 306 303 300 296 293 290 287 283 279 276
227 224 227 230 231 235 239 242 248 254 262 270 279 286 290 294 298 300 301 302 303 306 309 311 313 314 314 315 314 313 311 309 309 310 311 311 311 310 311 314 316 317 318 321 323 324 325 325 325 325 325 325 325 326 326 326 326 326 325 324 323 323 324 326 325 324 324 323 324 324 324 321 318 316 313 309 307 303 299 294 291 289 287 285 281
229 226 228 231 233 236 241 245 251 256 262 270 277 282 286 290 294 296 297 299 301 304 307 310 312 314 315 315 314 312 311 309 309 310 310 310 310 310 312 314 315 317 320 322 324 325 325 325 325 326 326 326 327 327 327 327 327 326 325 325 325 326 327 326 325 325 325 327 327 327 326 324 321 320 318 314 311 306 300 298 298 296 294 291 287
232 229 229 231 234 239 243 247 252 256 261 267 272 277 282 286 290 293 294 296 299 302 307 310 312 314 314 314 313 312 310 309 309 309 309 308 310 311 313 314 315 318 321 323 325 325 325 326 327 327 327 328 328 328 328 328 328 327 326 326 328 329 328 327 326 327 329 330 330 329 328 327 326 324 322 317 312 306 298 298 300 300 297 292 287
234 232 233 235 237 241 246 251 255 258 262 266 271 275 279 283 287 290 292 294 297 301 306 309 311 313 314 313 312 311 309 309 308 308 308 309 310 312 313 315 317 320 322 324 325 326 327 327 328 329 329 329 330 330 330 329 328 328 329 330 330 330 328 329 330 332 333 333 333 332 332 331 329 328 325 319 313 306 300 299 300 300 298 292 285
236 236 237 238 240 243 249 253 256 260 264 268 272 275 279 282 285 288 291 293 296 300 305 309 311 313 313 312 311 309 308 308 307 307 308 309 311 312 314 316 319 321 323 324 326 327 328 328 329 330 330 331 332 331 331 330 330 331 332 332 331 331 332 334 335 335 336 336 336 335 334 333 332 332 329 321 314 309 306 304 303 302 300 297 292
239 239 239 240 241 245 251 255 259 262 266 270 273 276 279 282 285 288 290 292 295 300 305 309 311 312 312 311 310 308 306 306 306 307 308 310 311 313 315 317 320 322 324 326 327 328 328 329 330 330 331 333 333 332 331 332 333 334 334 333 333 335 338 339 339 339 339 339 339 337 335 335 335 335 331 324 319 317 316 314 310 309 308 306 302
241 242 242 242 243 247 251 256 260 264 267 271 275 278 280 282 284 287 289 290 295 300 305 309 311 311 311 310 308 306 305 305 306 307 308 310 312 314 316 318 321 323 325 327 328 328 329 330 330 331 333 334 333 333 333 334 335 336 335 336 338 341 343 342 342 341 341 341 339 338 337 338 339 339 335 328 326 326 326 323 319 316 315 312 307
244 245 246 247 247 249 253 257 261 265 269 273 276 278 280 281 283 285 287 290 295 301 306 309 310 310 310 309 307 304 304 304 306 307 309 311 313 315 317 320 322 324 326 327 328 329 330 330 331 333 334 334 334 334 336 336 337 337 338 341 343 345 345 344 343 343 342 341 340 340 340 342 343 343 339 335 334 335 334 331 326 322 321 319 314
246 247 249 251 252 253 255 259 264 268 272 275 276 278 279 279 281 283 285 289 295 301 305 309 309 309 308 308 306 304 303 305 307 308 310 312 313 315 318 320 323 325 327 327 328 329 330 331 333 334 335 335 335 336 337 338 339 341 343 345 347 347 347 347 346 344 343 343 343 343 344 345 346 346 343 340 340 339 337 335 330 325 324 324 320
248 249 251 254 256 257 258 261 266 270 272 274 275 276 277 277 278 281 284 289 295 300 305 308 308 307 307 307 305 303 304 306 308 310 311 312 313 315 318 321 324 326 327 328 329 330 331 332 334 335 335 336 336 338 340 341 342 345 347 348 349 349 349 349 348 346 346 346 346 347 347 348 349 348 345 342 340 340 339 336 333 330 330 330 327
251 253 254 257 259 260 262 264 268 271 272 272 273 274 274 275 276 279 284 290 294 300 305 306 306 306 308 308 306 304 306 308 310 311 311 312 313 316 319 322 325 326 327 328 330 331 332 333 335 336 336 337 339 341 342 343 345 347 349 350 351 351 351 351 350 348 348 350 350 350 350 350 350 348 346 342 341 341 340 337 337 339 338 335 331
254 255 256 258 260 262 264 266 268 268 269 269 270 270 271 272 275 280 285 289 294 300 304 305 305 307 309 308 306 306 308 310 311 311 311 312 314 317 321 323 325 326 327 329 330 331 333 335 335 336 337 339 341 343 343 345 347 348 350 352 353 353 353 353 353 352 352 353 353 353 352 352 351 349 347 344 343 343 343 342 343 345 343 339 334
257 258 257 258 261 263 265 266 266 265 265 266 266 267 269 273 276 280 284 289 295 300 303 304 305 308 310 309 308 308 309 310 311 311 311 313 315 319 322 324 325 327 328 329 331 332 334 335 335 336 339 341 342 343 344 346 348 349 351 353 354 354 354 355 356 356 355 355 356 355 354 354 354 352 350 348 346 346 347 349 349 348 348 346 342
257 258 259 260 263 264 265 264 263 263 263 264 265 268 271 273 275 279 284 289 295 299 302 303 306 308 310 310 309 308 309 310 310 310 311 314 317 319 322 324 325 326 328 330 332 333 334 335 336 338 340 342 342 343 344 346 348 350 351 353 355 356 356 357 358 358 358 358 358 358 357 357 356 356 354 352 349 349 352 354 354 353 354 357 359
257 258 260 262 262 262 262 261 261 262 263 264 267 270 271 272 274 278 283 289 294 299 301 303 305 307 310 311 310 309 309 309 309 309 311 314 317 320 322 324 325 326 328 330 332 334 334 336 338 339 341 342 342 342 344 346 349 350 352 354 356 357 359 0 0 0 1 0 360 359 359 359 359 359 359 357 353 352 356 357 356 358 3 7 10
258 259 260 261 261 261 260 260 261 263 264 266 268 269 269 270 273 277 282 288 293 297 300 301 303 305 309 311 311 308 308 308 307 308 311 314 317 320 322 323 324 326 328 331 333 334 336 337 339 340 341 342 341 342 344 346 349 351 353 355 357 359 0 1 1 2 2 2 1 1 1 1 2 2 2 1 358 356 358 359 359 3 9 10 6
257 259 261 262 261 260 259 260 262 263 265 267 268 268 267 268 271 275 280 286 292 295 297 298 300 303 307 309 310 307 306 305 305 307 311 314 316 319 321 322 323 326 329 331 333 335 337 338 339 340 340 341 340 341 343 346 348 351 353 355 358 359 1 2 2 2 3 3 3 3 3 4 4 5 6 5 2 359 0 1 2 4 8 7 2
256 258 261 262 259 257 258 260 262 265 267 269 268 266 265 266 269 274 279 285 290 293 294 295 297 301 304 307 308 306 302 302 303 306 309 312 315 318 319 320 322 326 330 332 333 335 338 339 339 340 340 340 339 340 342 345 348 350 353 355 358 359 0 2 2 2 3 4 4 4 5 6 6 7 8 8 5 3 2 4 5 4 4 4 1
255 257 259 260 260 262 264 264 265 267 268 268 265 263 263 265 269 273 278 283 288 290 291 293 295 298 301 305 307 303 299 298 301 304 307 310 313 316 317 318 322 327 330 331 333 335 338 339 339 340 341 340 339 339 341 344 346 349 351 354 356 358 359 0 1 2 3 4 5 5 6 7 8 8 9 9 8 6 5 5 7 6 3 1 0
256 257 258 259 262 265 266 266 266 267 267 265 263 262 263 266 269 273 278 282 285 287 289 291 294 296 299 303 304 300 295 294 297 301 305 307 310 313 313 316 322 327 328 330 332 335 337 339 339 340 342 341 340 339 340 342 345 347 350 352 354 356 357 358 360 1 2 3 4 5 6 8 9 9 10 10 9 9 8 7 7 8 7 5 2
259 260 260 261 262 264 265 265 266 266 266 265 263 263 264 267 270 273 276 279 282 284 287 289 291 294 297 300 300 296 291 290 294 298 301 303 307 309 310 315 322 325 326 328 331 334 336 338 339 341 342 342 340 339 339 340 343 345 347 349 351 352 354 356 358 360 1 2 3 5 6 7 8 9 9 10 11 11 11 10 8 8 10 9 6
260 261 261 262 262 263 264 265 266 266 266 265 264 263 264 266 268 271 274 277 280 283 284 286 290 293 296 297 295 289 285 285 290 294 297 300 303 305 308 314 320 321 323 326 330 333 335 337 339 341 342 342 341 340 339 340 341 342 344 346 347 349 351 352 354 356 358 359 1 3 4 6 7 8 9 10 11 12 12 12 11 9 11 12 11
263 263 263 263 264 264 265 266 266 267 266 265 263 263 264 265 267 269 272 276 279 280 282 285 290 294 295 294 289 281 278 281 287 291 293 295 298 301 306 312 316 317 319 323 328 332 335 337 339 340 341 341 341 341 341 341 340 340 341 342 344 346 347 349 351 352 354 356 358 360 2 3 5 7 9 10 11 13 13 14 13 11 12 14 15
264 265 265 265 266 266 266 266 266 266 264 263 262 262 262 264 266 269 272 275 277 278 281 286 291 294 294 290 281 274 272 278 284 287 289 291 294 298 303 308 311 312 315 320 326 331 334 336 338 339 339 339 339 340 341 341 340 339 339 339 340 342 344 345 347 349 351 353 355 357 359 1 2 5 7 9 11 12 13 14 15 13 13 14 16
264 264 265 266 266 265 264 265 265 265 263 262 261 262 263 265 267 268 271 274 275 277 282 288 291 292 290 283 273 267 269 276 281 282 284 287 290 295 300 304 306 308 312 317 323 329 332 333 335 336 336 335 336 337 338 339 339 339 338 338 338 339 341 342 344 346 348 349 352 353 355 357 359 1 4 7 9 11 13 14 16 16 15 15 15
263 263 264 264 264 264 265 266 266 265 263 262 262 262 263 265 266 267 269 272 274 278 285 289 290 290 286 275 264 262 268 275 277 277 279 283 287 291 295 299 301 304 308 313 319 324 327 329 331 332 332 332 333 334 335 336 337 338 338 338 339 338 339 340 341 343 345 347 349 350 352 354 356 359 1 3 6 9 11 13 15 16 18 17 16
260 261 263 264 264 264 265 266 265 263 263 262 261 261 263 265 266 268 270 273 277 282 287 289 288 287 281 270 263 264 270 272 272 272 275 279 282 286 291 294 297 300 305 309 315 320 322 325 327 328 329 329 330 331 333 334 335 336 337 338 338 339 339 339 340 341 343 345 347 348 350 352 354 356 358 0 3 6 9 11 13 15 17 19 19
259 260 263 265 264 263 263 263 263 262 262 261 262 263 265 266 266 268 272 276 280 284 287 286 284 282 275 267 263 265 267 267 266 267 269 273 277 281 286 290 293 297 302 307 312 316 319 321 325 326 327 328 329 329 331 332 333 335 336 337 338 338 339 339 340 341 342 343 345 347 349 350 352 354 356 358 360 3 6 8 11 14 15 18 20
258 259 261 262 263 264 265 265 264 263 261 262 264 265 263 262 263 268 274 278 281 283 284 282 279 275 269 263 261 262 263 261 260 261 264 267 272 277 281 286 290 295 300 305 309 313 316 319 322 324 325 327 328 329 329 330 331 333 334 335 336 337 338 338 339 340 341 342 344 345 347 349 350 352 354 356 358 0 3 5 8 11 13 16 18
259 259 260 261 264 266 267 266 264 263 262 264 265 262 258 259 266 272 275 278 280 282 282 279 275 269 263 259 258 259 259 256 255 257 260 263 268 273 277 281 287 292 297 302 307 311 314 317 320 322 324 326 327 328 328 329 330 331 332 333 333 334 336 337 337 338 339 340 342 343 345 348 350 351 352 354 356 358 0 3 5 8 11 13 15
261 260 262 263 264 263 263 264 263 263 263 263 262 259 259 265 271 274 275 277 279 282 285 285 282 273 262 257 256 256 254 252 251 253 256 260 264 270 273 278 284 290 294 299 305 308 311 315 317 319 322 324 326 327 327 328 330 331 331 332 332 332 333 334 335 336 337 338 340 342 343 345 347 349 351 352 354 356 358 0 2 5 8 10 13
262 261 262 264 261 259 260 261 261 261 262 262 262 262 265 268 270 271 273 275 278 282 286 291 288 276 263 258 258 256 253 249 248 249 253 257 262 267 271 276 281 286 291 297 302 305 308 311 314 317 320 322 324 326 326 327 329 330 331 331 332 332 332 332 332 333 335 336 338 339 341 342 344 346 348 350 352 353 355 357 359 1 3 6 9
264 262 262 263 262 263 264 262 259 259 261 262 264 265 266 266 268 270 272 274 278 281 283 287 286 277 268 264 261 255 249 246 244 245 250 255 259 264 269 273 278 283 288 293 298 300 304 308 311 314 317 320 322 324 324 325 327 329 330 331 332 332 332 331 331 331 332 333 335 337 338 339 341 343 345 347 349 351 352 354 356 358 0 2 5
267 265 263 264 265 266 265 261 258 259 261 260 260 262 264 267 271 273 273 276 280 281 281 281 280 277 273 269 261 249 241 240 241 242 247 252 256 261 266 270 275 280 285 290 295 298 302 306 309 312 314 317 320 321 322 323 324 326 328 330 331 331 331 331 331 330 330 331 332 334 335 336 337 339 341 343 345 348 349 350 352 355 357 359 1
265 264 263 264 265 265 264 262 261 261 259 257 257 260 264 268 272 273 275 278 280 280 280 279 277 274 272 267 257 245 238 236 236 239 243 248 253 258 264 268 273 278 283 288 293 296 300 304 306 309 312 314 317 318 319 320 322 324 327 328 329 330 331 331 331 330 329 329 330 331 332 333 334 335 337 339 341 344 346 348 349 351 352 355 357
261 260 261 262 261 261 262 262 259 256 255 255 257 260 264 268 270 273 275 277 278 278 279 277 274 272 269 262 254 244 237 234 234 237 241 246 251 256 261 266 270 275 280 285 289 293 297 300 303 306 309 311 314 315 316 317 320 322 324 326 328 329 330 330 330 330 329 328 328 329 330 331 332 333 334 336 338 340 342 344 346 347 348 350 351
259 259 259 257 254 255 258 259 257 254 254 257 260 263 266 268 270 272 274 274 275 277 278 275 272 269 266 260 253 243 235 232 234 236 239 244 249 253 258 263 267 272 277 282 286 290 294 298 301 304 306 309 311 312 313 315 318 320 322 324 326 327 328 329 329 328 328 327 327 327 328 329 330 331 332 333 334 337 338 340 341 343 344 345 346
258 257 256 254 252 252 253 255 256 256 257 260 263 266 269 270 271 273 274 273 274 276 277 275 273 269 267 263 255 242 232 231 235 237 239 243 247 251 256 261 265 269 275 279 284 288 293 296 299 302 304 306 308 310 312 315 317 318 320 322 324 325 326 326 326 326 326 325 325 325 325 327 327 328 329 329 331 332 335 336 338 339 340 341 342
257 256 255 256 256 255 255 256 257 257 257 259 261 262 265 268 271 273 274 273 273 273 272 270 269 267 265 262 253 240 231 231 235 237 239 243 247 251 256 260 264 268 273 278 283 287 291 295 297 300 302 304 306 309 311 314 315 317 318 320 322 323 324 324 324 324 323 323 323 322 322 323 324 324 325 326 327 329 330 332 334 335 336 337 338
260 259 258 258 258 258 258 259 259 259 260 261 261 260 261 263 266 268 268 268 268 267 265 264 265 264 261 256 248 239 233 233 235 237 240 243 247 251 255 259 263 268 273 277 281 285 289 292 295 298 300 303 305 307 310 312 314 315 316 317 319 321 322 322 321 321 321 321 320 320 320 320 320 321 322 323 324 326 327 328 329 330 332 332 333
262 262 262 261 260 260 259 260 260 261 263 263 261 257 255 255 256 256 257 259 262 262 262 263 264 261 256 250 244 238 234 234 236 237 240 243 247 251 255 259 264 268 272 276 279 283 287 290 293 296 299 301 303 306 308 310 312 313 314 315 317 318 319 319 318 318 318 318 317 318 318 317 317 318 319 321 322 323 324 325 326 326 327 328 328
262 263 264 264 263 261 261 261 262 263 262 259 254 250 249 248 247 248 250 255 260 263 265 265 263 259 253 247 242 238 236 236 236 238 240 244 247 251 255 260 264 267 271 274 278 282 285 288 291 294 297 300 302 304 306 308 309 310 312 313 314 315 316 317 316 315 315 315 315 315 315 315 315 316 317 319 320 321 321 322 322 323 323 324 324
260 261 262 263 262 259 258 258 258 258 256 252 249 249 249 247 247 249 253 257 261 264 265 265 262 257 252 246 241 239 238 237 237 239 242 245 249 252 256 260 264 267 270 274 277 280 284 287 290 293 295 298 300 302 304 305 307 308 310 311 312 313 314 314 313 313 313 313 313 313 313 313 313 315 316 317 318 318 319 320 320 320 320 321 321
257 257 258 259 259 257 256 256 256 255 254 252 250 251 251 249 250 253 256 259 261 263 264 263 260 255 250 245 241 239 239 239 240 241 243 246 250 254 257 260 264 267 270 273 277 280 283 286 289 292 294 297 299 300 302 303 305 307 308 309 309 310 311 311 311 311 311 311 311 312 312 312 313 314 315 316 316 317 317 318 318 318 318 318 318
254 254 255 256 257 257 258 259 259 259 259 258 257 256 254 254 255 258 260 262 264 264 262 260 257 254 250 245 242 240 241 242 242 243 245 248 251 255 258 262 265 268 270 274 277 280 283 286 288 291 293 296 297 298 300 302 303 305 306 306 307 308 309 309 309 308 308 309 310 311 311 312 313 314 314 314 314 315 315 316 316 317 316 316 316
Height
5786 5787 5788 5788 5789 5789 5790 5790 5791 5792 5792 5793 5793 5793 5793 5793 5793 5792 5792 5791 5791 5790 5789 5788 5786 5785 5783 5781 5780 5778 5776 5773 5771 5769 5767 5765 5763 5761 5759 5756 5754 5752 5751 5749 5747 5745 5742 5739 5736 5733 5730 5726 5723 5719 5715 5711 5707 5703 5699 5695 5691 5688 5684 5680 5677 5673 5668 5663 5660 5657 5653 5650 5646 5642 5641 5640 5637 5634 5631 5628 5625 5624 5622 5621 5620
5785 5785 5786 5787 5787 5788 5788 5789 5790 5790 5790 5791 5791 5791 5791 5791 5791 5790 5789 5789 5788 5788 5787 5785 5784 5782 5780 5778 5776 5774 5772 5770 5768 5766 5764 5762 5760 5758 5756 5753 5751 5750 5748 5746 5744 5741 5738 5735 5732 5729 5725 5721 5718 5714 5710 5705 5701 5697 5693 5689 5684 5680 5677 5673 5670 5667 5663 5658 5654 5651 5647 5643 5639 5635 5632 5630 5629 5627 5624 5620 5618 5615 5613 5612 5611
5783 5784 5784 5785 5786 5786 5787 5787 5788 5788 5789 5789 5790 5789 5789 5789 5788 5788 5787 5787 5786 5785 5784 5783 5781 5779 5777 5775 5773 5771 5769 5767 5765 5763 5761 5759 5757 5755 5753 5751 5749 5747 5745 5743 5740 5738 5734 5731 5728 5724 5720 5717 5712 5709 5705 5700 5696 5692 5687 5683 5678 5674 5670 5666 5663 5660 5657 5653 5648 5645 5641 5637 5632 5628 5624 5621 5619 5617 5615 5612 5609 5607 5605 5603 5602
5781 5782 5783 5783 5784 5785 5785 5786 5786 5786 5787 5787 5787 5787 5787 5786 5786 5785 5785 5784 5783 5782 5781 5780 5778 5777 5775 5773 5770 5768 5766 5764 5762 5760 5758 5756 5754 5752 5750 5748 5746 5744 5742 5739 5737 5734 5730 5727 5723 5720 5716 5712 5708 5704 5700 5695 5691 5687 5682 5678 5673 5669 5664 5660 5657 5653 5650 5647 5643 5638 5634 5630 5625 5620 5616 5613 5610 5607 5605 5603 5600 5598 5596 5593 5592
5779 5780 5781 5781 5782 5782 5783 5783 5784 5784 5785 5785 5785 5785 5784 5784 5783 5783 5782 5782 5781 5780 5779 5777 5776 5774 5772 5770 5767 5765 5763 5761 5759 5757 5755 5753 5751 5749 5747 5745 5743 5741 5739 5736 5733 5730 5727 5723 5719 5715 5711 5707 5703 5699 5695 5691 5687 5682 5678 5673 5669 5664 5660 5656 5652 5647 5643 5640 5637 5632 5627 5623 5619 5613 5608 5604 5602 5599 5597 5594 5591 5588 5587 5585 5582
5776 5777 5778 5779 5779 5780 5780 5781 5781 5782 5782 5782 5782 5782 5781 5781 5781 5780 5780 5779 5778 5777 5776 5775 5773 5771 5769 5767 5765 5762 5760 5758 5756 5754 5752 5750 5748 5747 5745 5743 5741 5738 5735 5733 5730 5726 5723 5719 5715 5711 5707 5703 5699 5694 5690 5686 5682 5678 5674 5669 5665 5661 5656 5652 5648 5643 5639 5634 5631 5627 5622 5617 5612 5607 5602 5597 5593 5590 5588 5587 5583 5578 5577 5576 5573
5774 5775 5776 5776 5777 5777 5778 5778 5779 5779 5780 5780 5780 5779 5779 5778 5778 5778 5778 5777 5776 5775 5773 5772 5770 5768 5766 5764 5761 5759 5757 5755 5753 5751 5749 5748 5746 5744 5742 5740 5738 5735 5732 5729 5726 5722 5719 5715 5711 5707 5703 5699 5695 5690 5686 5682 5678 5674 5670 5665 5661 5657 5652 5648 5644 5639 5635 5630 5625 5621 5617 5611 5605 5601 5596 5590 5585 5580 5577 5576 5575 5572 5569 5567 5565
5772 5773 5773 5774 5774 5775 5775 5776 5776 5777 5777 5777 5777 5777 5776 5776 5776 5776 5775 5774 5773 5772 5771 5769 5767 5765 5763 5761 5758 5756 5754 5753 5751 5749 5747 5745 5744 5742 5740 5738 5735 5732 5729 5726 5722 5719 5715 5711 5707 5703 5699 5695 5691 5687 5683 5679 5674 5670 5666 5662 5658 5653 5649 5645 5640 5636 5631 5626 5621 5616 5611 5606 5600 5595 5589 5583 5578 5574 5570 5568 5568 5567 5565 5562 5559
5769 5770 5771 5771 5772 5772 5773 5773 5774 5774 5775 5775 5775 5775 5774 5774 5774 5773 5772 5771 5770 5769 5767 5766 5764 5762 5760 5757 5756 5754 5752 5750 5748 5746 5745 5743 5741 5739 5737 5735 5732 5730 5726 5723 5720 5716 5712 5708 5703 5699 5695 5691 5687 5682 5678 5674 5670 5666 5662 5658 5654 5650 5646 5641 5636 5632 5626 5621 5616 5611 5605 5600 5593 5588 5582 5576 5572 5570 5567 5564 5563 5562 5560 5558 5555
5767 5768 5768 5768 5769 5770 5770 5771 5771 5772 5772 5772 5772 5772 5772 5772 5771 5770 5769 5768 5767 5766 5764 5762 5760 5759 5756 5754 5753 5751 5749 5747 5745 5744 5742 5740 5738 5736 5734 5732 5729 5727 5724 5720 5717 5713 5709 5704 5700 5695 5691 5687 5683 5678 5674 5670 5666 5662 5658 5654 5651 5647 5643 5638 5632 5627 5622 5616 5610 5605 5600 5594 5587 5581 5576 5572 5568 5566 5563 5561 5558 5556 5554 5552 5551
5764 5765 5765 5766 5767 5767 5768 5768 5769 5769 5770 5770 5770 5769 5769 5769 5768 5767 5766 5765 5764 5762 5761 5759 5757 5755 5754 5752 5750 5748 5746 5744 5743 5741 5739 5737 5735 5733 5732 5729 5726 5724 5721 5717 5714 5709 5705 5701 5697 5692 5688 5683 5679 5675 5670 5666 5662 5658 5654 5650 5646 5643 5638 5634 5628 5622 5617 5611 5605 5599 5594 5589 5582 5576 5571 5568 5565 5563 5560 5556 5553 5551 5548 5545 5544
5762 5762 5763 5764 5764 5765 5765 5766 5766 5767 5767 5767 5767 5766 5766 5766 5765 5764 5763 5762 5760 5759 5758 5756 5754 5752 5751 5749 5747 5745 5743 5742 5740 5738 5736 5735 5733 5731 5729 5726 5724 5721 5718 5714 5710 5706 5702 5698 5694 5690 5686 5681 5677 5672 5668 5663 5659 5655 5651 5647 5643 5639 5634 5628 5623 5618 5612 5607 5601 5595 5589 5584 5577 5571 5567 5564 5562 5559 5556 5552 5547 5545 5542 5539 5536
5759 5760 5761 5761 5762 5763 5763 5763 5763 5764 5764 5764 5764 5763 5763 5762 5761 5760 5759 5758 5757 5756 5755 5753 5751 5749 5748 5746 5744 5742 5741 5739 5737 5735 5734 5732 5730 5728 5726 5723 5721 5718 5714 5711 5707 5704 5700 5696 5692 5688 5683 5679 5674 5670 5666 5661 5657 5653 5649 5645 5641 5636 5631 5625 5619 5614 5608 5603 5597 5591 5585 5579 5573 5567 5563 5560 5558 5555 5551 5547 5543 5540 5537 5533 5530
5757 5757 5758 5759 5759 5760 5760 5760 5760 5761 5761 5761 5760 5760 5759 5758 5758 5757 5756 5755 5754 5753 5752 5750 5748 5746 5745 5743 5741 5739 5738 5736 5734 5733 5731 5729 5727 5725 5723 5720 5718 5715 5711 5708 5705 5701 5697 5693 5689 5685 5681 5677 5673 5669 5664 5660 5656 5652 5648 5644 5640 5635 5630 5624 5618 5612 5606 5600 5595 5588 5582 5575 5568 5563 5559 5557 5554 5550 5546 5542 5539 5535 5532 5528 5524
5754 5754 5755 5756 5756 5757 5757 5757 5757 5757 5757 5757 5756 5756 5756 5755 5754 5753 5753 5752 5751 5750 5748 5747 5745 5743 5742 5740 5738 5736 5735 5733 5731 5730 5728 5726 5724 5722 5720 5717 5715 5712 5709 5705 5702 5698 5695 5691 5687 5683 5679 5675 5671 5667 5663 5659 5655 5652 5647 5643 5638 5633 5628 5623 5617 5611 5605 5599 5592 5586 5579 5573 5566 5560 5556 5553 5550 5547 5543 5539 5535 5532 5529 5525 5519
5751 5751 5752 5752 5753 5753 5754 5754 5754 5754 5753 5753 5753 5752 5752 5751 5750 5750 5749 5748 5747 5746 5745 5743 5742 5740 5739 5737 5735 5733 5732 5730 5728 5727 5725 5723 5722 5719 5717 5715 5712 5709 5706 5703 5699 5696 5692 5688 5684 5681 5677 5674 5670 5666 5662 5658 5655 5651 5647 5642 5638 5633 5627 5621 5616 5610 5604 5598 5591 5584 5577 5571 5565 5559 5554 5551 5549 5545 5541 5537 5533 5529 5525 5521 5516
5748 5748 5749 5749 5749 5749 5750 5750 5750 5750 5750 5749 5749 5748 5748 5747 5747 5746 5746 5745 5744 5743 5741 5740 5739 5737 5735 5734 5732 5730 5729 5727 5725 5724 5722 5721 5719 5717 5714 5712 5709 5706 5703 5700 5697 5693 5690 5686 5682 5679 5676 5672 5668 5664 5661 5658 5654 5650 5646 5642 5637 5633 5627 5621 5616 5610 5604 5597 5591 5584 5578 5571 5565 5559 5554 5550 5547 5544 5539 5535 5531 5526 5521 5517 5512
5744 5745 5745 5745 5745 5745 5746 5746 5746 5746 5746 5745 5745 5744 5744 5744 5743 5743 5742 5741 5740 5739 5738 5737 5735 5734 5732 5730 5729 5727 5726 5724 5723 5721 5720 5718 5716 5714 5711 5709 5706 5704 5701 5698 5694 5691 5687 5684 5680 5677 5674 5670 5667 5663 5660 5657 5654 5650 5646 5641 5637 5632 5628 5623 5617 5611 5604 5598 5592 5585 5579 5573 5566 5559 5553 5549 5545 5541 5537 5532 5528 5523 5517 5512 5508
5740 5740 5740 5740 5740 5741 5742 5742 5742 5742 5742 5741 5741 5740 5740 5740 5740 5739 5738 5738 5737 5736 5735 5733 5732 5731 5729 5727 5725 5724 5723 5721 5720 5718 5717 5715 5713 5711 5708 5706 5703 5701 5698 5695 5692 5689 5685 5682 5679 5675 5672 5669 5666 5662 5659 5656 5653 5649 5645 5641 5636 5632 5627 5622 5616 5610 5604 5598 5592 5586 5580 5573 5566 5559 5552 5548 5544 5539 5534 5529 5524 5519 5513 5507 5500
5736 5735 5735 5736 5736 5737 5737 5737 5737 5737 5737 5737 5737 5737 5737 5737 5736 5735 5735 5734 5733 5732 5731 5730 5729 5727 5726 5724 5722 5721 5720 5718 5717 5715 5714 5712 5710 5708 5705 5703 5701 5698 5695 5692 5689 5686 5683 5680 5677 5673 5670 5667 5664 5661 5658 5655 5651 5648 5644 5639 5635 5631 5625 5619 5614 5608 5603 5597 5591 5585 5579 5572 5566 5559 5552 5546 5542 5537 5532 5526 5520 5514 5508 5502 5494
5731 5731 5731 5731 5732 5732 5732 5732 5733 5733 5733 5733 5733 5733 5733 5733 5732 5732 5731 5730 5729 5729 5727 5726 5725 5724 5723 5721 5719 5718 5717 5715 5714 5712 5711 5709 5707 5705 5702 5700 5698 5695 5693 5690 5687 5684 5681 5678 5675 5672 5669 5666 5663 5660 5657 5654 5650 5646 5642 5638 5633 5629 5623 5618 5613 5607 5602 5596 5591 5585 5579 5573 5566 5559 5551 5545 5540 5535 5529 5523 5518 5511 5504 5498 5492
5726 5727 5727 5727 5727 5728 5728 5728 5728 5729 5729 5729 5729 5729 5729 5729 5729 5728 5727 5726 5726 5725 5724 5723 5722 5721 5719 5718 5716 5715 5713 5712 5711 5709 5707 5705 5704 5702 5700 5698 5695 5693 5690 5687 5684 5682 5679 5676 5673 5670 5668 5665 5662 5659 5656 5653 5649 5645 5641 5636 5632 5627 5623 5618 5613 5608 5602 5597 5591 5586 5580 5573 5566 5558 5551 5544 5538 5532 5527 5522 5516 5509 5501 5495 5489
5722 5722 5722 5722 5723 5723 5723 5724 5724 5725 5725 5725 5725 5725 5725 5724 5724 5724 5723 5723 5722 5721 5720 5719 5718 5717 5716 5714 5713 5711 5710 5709 5707 5706 5704 5702 5700 5699 5697 5695 5693 5690 5687 5685 5682 5679 5677 5674 5671 5669 5666 5664 5661 5658 5655 5652 5648 5644 5640 5636 5632 5627 5623 5618 5613 5609 5603 5598 5592 5586 5580 5573 5565 5558 5551 5543 5537 5531 5526 5521 5515 5508 5501 5494 5488
5718 5718 5719 5719 5718 5718 5718 5719 5720 5720 5721 5721 5721 5721 5720 5720 5720 5720 5719 5719 5718 5717 5716 5716 5714 5713 5712 5711 5709 5708 5706 5705 5704 5702 5701 5699 5697 5696 5694 5692 5690 5687 5685 5682 5680 5677 5675 5672 5670 5667 5665 5663 5660 5657 5654 5651 5647 5643 5640 5636 5631 5627 5623 5619 5614 5610 5604 5599 5593 5587 5580 5573 5566 5558 5551 5544 5538 5532 5527 5522 5515 5507 5500 5494 5488
5714 5714 5715 5715 5714 5713 5714 5715 5715 5716 5716 5716 5716 5716 5716 5716 5716 5716 5715 5715 5714 5713 5712 5711 5710 5709 5708 5707 5706 5704 5703 5701 5700 5699 5698 5696 5694 5693 5691 5690 5687 5685 5682 5680 5678 5675 5673 5671 5669 5666 5664 5661 5659 5656 5653 5650 5646 5643 5639 5635 5631 5627 5624 5619 5615 5610 5605 5599 5594 5587 5580 5574 5567 5560 5553 5547 5541 5535 5529 5522 5516 5509 5502 5495 5488
5709 5709 5710 5710 5709 5709 5709 5710 5710 5711 5711 5712 5712 5712 5712 5712 5712 5712 5711 5710 5710 5709 5708 5707 5706 5705 5704 5703 5702 5700 5699 5698 5697 5696 5694 5693 5691 5690 5689 5687 5684 5682 5680 5678 5676 5674 5672 5670 5667 5665 5662 5660 5657 5654 5651 5648 5645 5642 5638 5634 5631 5627 5624 5620 5615 5610 5605 5600 5594 5588 5582 5575 5568 5562 5556 5550 5544 5537 5530 5524 5517 5511 5504 5497 5491
5704 5705 5705 5705 5704 5704 5705 5705 5706 5706 5707 5707 5707 5707 5707 5707 5707 5707 5706 5706 5705 5705 5704 5703 5702 5701 5700 5699 5698 5697 5695 5694 5693 5692 5691 5690 5689 5687 5686 5684 5682 5680 5678 5676 5674 5672 5670 5668 5666 5663 5661 5658 5656 5653 5650 5647 5644 5640 5637 5634 5630 5627 5623 5619 5614 5610 5605 5600 5594 5589 5583 5577 5571 5565 5559 5553 5546 5539 5532 5525 5519 5513 5506 5498 5493
5699 5700 5700 5700 5700 5700 5700 5701 5701 5702 5702 5702 5703 5703 5703 5703 5703 5702 5701 5701 5701 5700 5699 5698 5698 5697 5696 5695 5694 5692 5691 5691 5690 5689 5688 5687 5686 5685 5683 5681 5679 5678 5676 5674 5672 5670 5668 5666 5664 5662 5660 5657 5654 5651 5648 5645 5642 5639 5636 5633 5630 5626 5622 5618 5614 5609 5605 5601 5595 5590 5585 5579 5574 5568 5561 5555 5548 5541 5534 5528 5521 5515 5508 5501 5495
5694 5694 5695 5695 5695 5695 5696 5696 5696 5697 5697 5698 5698 5698 5698 5698 5698 5698 5697 5696 5696 5695 5695 5694 5693 5692 5691 5690 5689 5688 5687 5687 5686 5685 5685 5684 5683 5682 5680 5678 5677 5675 5674 5672 5670 5668 5666 5664 5662 5660 5658 5655 5652 5650 5647 5644 5641 5638 5635 5632 5629 5626 5622 5618 5614 5610 5606 5601 5597 5592 5586 5581 5575 5570 5564 5558 5551 5544 5537 5531 5525 5518 5512 5505 5498
5689 5690 5690 5690 5691 5690 5690 5691 5692 5692 5693 5693 5694 5694 5693 5693 5693 5693 5692 5692 5691 5691 5690 5689 5689 5688 5687 5686 5685 5684 5683 5683 5682 5682 5681 5681 5680 5679 5677 5676 5674 5673 5672 5670 5668 5666 5664 5662 5660 5658 5656 5654 5651 5648 5646 5643 5640 5637 5634 5631 5628 5625 5621 5618 5614 5610 5606 5601 5597 5592 5587 5582 5577 5572 5566 5560 5554 5548 5541 5535 5528 5522 5515 5509 5503
5685 5685 5685 5686 5686 5685 5685 5686 5687 5687 5688 5688 5689 5689 5689 5688 5688 5688 5688 5687 5687 5686 5686 5685 5684 5683 5682 5681 5681 5680 5679 5679 5678 5678 5678 5678 5677 5676 5674 5673 5672 5670 5669 5667 5666 5664 5662 5660 5659 5657 5655 5653 5650 5647 5645 5642 5639 5636 5633 5630 5627 5623 5620 5617 5613 5610 5606 5601 5597 5592 5587 5583 5578 5573 5567 5562 5556 5551 5545 5539 5533 5527 5519 5513 5507
5681 5680 5680 5681 5681 5680 5680 5682 5682 5683 5683 5684 5684 5684 5684 5683 5683 5683 5683 5683 5682 5682 5681 5680 5679 5679 5678 5677 5676 5675 5675 5675 5675 5675 5675 5674 5674 5673 5671 5670 5669 5668 5666 5665 5663 5662 5660 5658 5657 5655 5653 5651 5649 5646 5643 5641 5638 5635 5632 5628 5625 5622 5619 5616 5612 5609 5605 5601 5597 5592 5588 5583 5578 5573 5568 5563 5558 5553 5548 5543 5537 5531 5525 5518 5512
5676 5676 5676 5676 5676 5675 5676 5677 5677 5678 5679 5679 5679 5679 5679 5679 5678 5678 5678 5678 5678 5677 5676 5675 5674 5673 5672 5672 5672 5671 5671 5671 5671 5671 5671 5671 5670 5669 5668 5667 5666 5665 5664 5662 5661 5659 5658 5656 5655 5653 5651 5649 5647 5644 5641 5639 5636 5633 5630 5627 5624 5621 5617 5614 5611 5607 5604 5600 5596 5592 5588 5583 5579 5574 5569 5565 5560 5555 5550 5545 5540 5535 5529 5523 5517
5670 5671 5672 5671 5670 5670 5671 5672 5673 5673 5674 5674 5674 5674 5674 5674 5673 5673 5673 5673 5673 5672 5671 5669 5668 5668 5667 5667 5667 5666 5667 5667 5668 5668 5668 5667 5667 5666 5665 5664 5663 5662 5661 5659 5658 5657 5655 5654 5652 5651 5649 5647 5644 5642 5639 5637 5634 5631 5628 5625 5622 5619 5616 5613 5609 5606 5603 5599 5595 5592 5588 5584 5579 5575 5571 5566 5562 5557 5552 5548 5543 5538 5532 5527 5522
5666 5667 5668 5667 5665 5666 5667 5667 5668 5669 5669 5669 5669 5669 5668 5667 5667 5667 5668 5668 5667 5667 5666 5664 5663 5663 5663 5662 5662 5662 5662 5663 5663 5664 5664 5664 5663 5663 5661 5660 5659 5658 5658 5656 5655 5654 5653 5651 5650 5648 5647 5645 5642 5640 5637 5634 5631 5629 5626 5623 5620 5617 5614 5611 5608 5605 5602 5598 5595 5591 5588 5584 5579 5575 5571 5567 5563 5558 5554 5549 5544 5540 5535 5530 5526
5661 5662 5662 5661 5661 5661 5662 5662 5663 5664 5664 5664 5664 5663 5662 5662 5663 5663 5663 5663 5663 5662 5661 5659 5658 5657 5657 5658 5658 5657 5658 5659 5659 5660 5660 5660 5660 5659 5658 5657 5656 5655 5654 5654 5653 5651 5650 5649 5647 5646 5644 5642 5640 5637 5635 5632 5629 5627 5624 5621 5619 5616 5613 5610 5607 5604 5600 5597 5594 5590 5587 5583 5580 5576 5572 5568 5564 5560 5555 5551 5547 5542 5538 5534 5530
5656 5657 5658 5656 5655 5655 5656 5656 5657 5658 5659 5659 5659 5659 5659 5658 5658 5658 5658 5658 5658 5658 5656 5655 5654 5653 5652 5652 5652 5652 5653 5654 5655 5656 5656 5656 5656 5655 5654 5653 5653 5652 5651 5651 5650 5649 5647 5646 5644 5643 5641 5640 5638 5635 5632 5630 5627 5624 5622 5619 5616 5614 5611 5608 5605 5602 5599 5596 5593 5589 5586 5583 5580 5576 5572 5569 5565 5561 5557 5553 5549 5545 5541 5537 5534
5651 5652 5652 5651 5649 5649 5650 5651 5651 5653 5653 5653 5654 5654 5654 5654 5653 5653 5654 5654 5654 5653 5652 5651 5650 5649 5648 5648 5647 5648 5649 5650 5651 5652 5652 5652 5652 5651 5651 5650 5649 5649 5648 5647 5647 5646 5644 5643 5642 5640 5639 5637 5635 5633 5630 5627 5625 5622 5620 5617 5614 5612 5609 5606 5603 5600 5597 5594 5591 5588 5585 5582 5579 5576 5573 5569 5565 5562 5558 5555 5551 5547 5544 5540 5537
5645 5646 5647 5646 5644 5644 5645 5645 5645 5647 5648 5648 5649 5649 5648 5648 5649 5649 5650 5649 5649 5648 5648 5647 5646 5646 5645 5644 5643 5643 5644 5645 5646 5647 5648 5648 5648 5647 5647 5646 5646 5645 5645 5644 5643 5643 5642 5640 5638 5637 5636 5634 5632 5630 5628 5625 5623 5620 5617 5615 5612 5609 5607 5604 5601 5598 5595 5593 5590 5587 5584 5581 5578 5575 5572 5569 5566 5562 5559 5555 5552 5549 5545 5542 5538
5639 5640 5641 5640 5639 5639 5639 5640 5640 5641 5642 5643 5644 5644 5643 5643 5644 5644 5645 5645 5644 5644 5643 5643 5642 5641 5640 5640 5639 5639 5639 5640 5641 5643 5644 5644 5644 5643 5643 5643 5642 5642 5641 5640 5640 5639 5638 5637 5635 5634 5632 5631 5629 5627 5625 5623 5620 5618 5615 5612 5610 5607 5604 5602 5599 5596 5594 5591 5588 5586 5583 5580 5577 5574 5571 5568 5565 5562 5559 5556 5553 5549 5546 5543 5540
5634 5634 5635 5635 5634 5633 5634 5635 5635 5636 5637 5638 5638 5639 5639 5639 5639 5639 5639 5639 5639 5639 5639 5638 5638 5637 5636 5635 5634 5634 5634 5635 5636 5638 5639 5639 5639 5639 5639 5639 5638 5638 5637 5636 5636 5635 5634 5633 5632 5631 5629 5628 5626 5624 5622 5620 5618 5615 5613 5610 5607 5605 5602 5599 5597 5594 5592 5589 5586 5584 5581 5579 5576 5573 5571 5568 5565 5562 5559 5556 5553 5550 5547 5544 5542
5628 5629 5629 5630 5629 5628 5628 5629 5630 5631 5631 5632 5633 5633 5633 5633 5633 5633 5634 5634 5633 5633 5633 5633 5632 5631 5630 5630 5629 5630 5630 5631 5632 5633 5634 5635 5635 5635 5635 5635 5634 5634 5633 5633 5632 5632 5631 5630 5629 5627 5626 5624 5623 5621 5619 5617 5615 5612 5610 5607 5605 5602 5600 5597 5595 5592 5589 5587 5584 5582 5579 5577 5575 5572 5569 5567 5564 5561 5559 5556 5553 5551 5548 5545 5542
5624 5624 5624 5624 5624 5623 5623 5624 5625 5625 5626 5627 5627 5627 5627 5628 5628 5628 5629 5628 5628 5627 5627 5626 5626 5625 5625 5624 5625 5625 5626 5626 5627 5628 5629 5630 5631 5631 5631 5631 5630 5630 5629 5629 5629 5628 5627 5626 5625 5624 5622 5621 5619 5618 5616 5614 5612 5609 5607 5604 5602 5599 5597 5595 5592 5590 5587 5585 5582 5579 5577 5575 5573 5570 5568 5565 5563 5560 5558 5555 5553 5550 5548 5545 5543
5619 5619 5619 5619 5618 5618 5619 5619 5620 5621 5621 5622 5621 5621 5621 5622 5622 5623 5623 5623 5622 5622 5622 5621 5621 5621 5620 5620 5620 5621 5622 5622 5622 5623 5624 5625 5626 5627 5627 5626 5626 5626 5625 5625 5625 5624 5623 5622 5621 5620 5619 5617 5616 5614 5612 5610 5608 5606 5603 5601 5599 5596 5594 5592 5590 5587 5585 5582 5580 5577 5575 5573 5570 5568 5566 5563 5561 5559 5556 5554 5552 5550 5548 5545 5543
5614 5614 5614 5614 5613 5614 5614 5614 5615 5615 5616 5616 5616 5616 5616 5616 5616 5617 5617 5618 5618 5617 5617 5616 5616 5616 5615 5615 5615 5616 5617 5617 5618 5618 5619 5620 5621 5622 5622 5622 5622 5621 5621 5621 5620 5620 5619 5618 5617 5616 5615 5613 5612 5610 5608 5606 5604 5602 5599 5597 5595 5593 5591 5589 5586 5584 5582 5580 5577 5574 5572 5570 5568 5566 5563 5561 5559 5556 5554 5553 5551 5549 5547 5545 5543
5608 5608 5608 5608 5609 5609 5609 5609 5610 5610 5610 5610 5610 5610 5610 5611 5611 5611 5612 5613 5613 5612 5612 5611 5611 5610 5610 5610 5610 5611 5612 5613 5613 5614 5615 5616 5616 5617 5617 5617 5617 5617 5617 5616 5616 5615 5615 5614 5613 5612 5611 5609 5608 5606 5604 5602 5599 5597 5595 5593 5591 5589 5587 5585 5583 5581 5579 5577 5574 5572 5569 5567 5565 5563 5561 5559 5556 5554 5552 5550 5548 5547 5545 5543 5541
5603 5603 5603 5603 5603 5604 5604 5604 5604 5604 5604 5603 5603 5604 5604 5604 5605 5606 5607 5607 5607 5607 5606 5606 5605 5605 5604 5604 5605 5606 5607 5608 5609 5609 5610 5611 5612 5612 5613 5612 5612 5612 5612 5612 5611 5611 5610 5609 5609 5608 5606 5605 5604 5602 5600 5598 5596 5593 5591 5589 5587 5585 5583 5581 5579 5577 5575 5573 5571 5569 5567 5564 5562 5560 5558 5556 5553 5551 5549 5548 5546 5544 5542 5541 5539
5598 5597 5597 5597 5598 5598 5598 5598 5598 5598 5598 5598 5598 5598 5598 5598 5599 5600 5601 5601 5602 5601 5601 5601 5600 5600 5599 5600 5600 5601 5602 5603 5604 5605 5606 5607 5607 5608 5608 5608 5608 5608 5607 5607 5607 5606 5606 5605 5604 5603 5602 5601 5599 5598 5596 5594 5592 5590 5588 5585 5583 5581 5579 5577 5575 5573 5572 5570 5568 5566 5563 5561 5559 5556 5554 5552 5550 5548 5546 5545 5543 5541 5539 5538 5536
5593 5593 5592 5592 5592 5593 5593 5593 5593 5593 5592 5593 5593 5593 5593 5593 5594 5594 5595 5596 5596 5596 5596 5595 5595 5595 5595 5595 5596 5597 5598 5599 5600 5600 5601 5602 5602 5603 5603 5603 5603 5603 5603 5603 5602 5602 5601 5601 5600 5599 5598 5597 5595 5594 5592 5590 5588 5586 5584 5581 5579 5577 5575 5573 5571 5569 5567 5566 5564 5562 5560 5557 5555 5553 5551 5549 5547 5545 5543 5541 5540 5538 5536 5535 5533
5588 5588 5588 5588 5588 5588 5588 5588 5588 5588 5588 5589 5590 5590 5590 5590 5590 5590 5590 5590 5591 5590 5590 5590 5590 5590 5590 5591 5591 5592 5593 5595 5595 5596 5597 5597 5598 5598 5598 5598 5599 5599 5598 5598 5598 5597 5597 5596 5595 5594 5593 5592 5590 5589 5587 5585 5584 5581 5579 5577 5575 5573 5571 5569 5566 5564 5563 5561 5559 5558 5555 5553 5551 5549 5547 5545 5543 5541 5539 5538 5536 5534 5532 5531 5529
5583 5583 5583 5583 5583 5583 5583 5584 5584 5584 5584 5585 5585 5585 5585 5585 5585 5585 5585 5585 5585 5585 5585 5584 5584 5585 5585 5586 5587 5588 5590 5590 5591 5592 5592 5593 5593 5593 5594 5594 5594 5594 5594 5593 5593 5593 5592 5591 5590 5589 5588 5587 5585 5584 5582 5581 5579 5577 5575 5573 5571 5568 5566 5564 5562 5560 5558 5556 5555 5553 5551 5549 5546 5544 5542 5541 5539 5537 5535 5533 5532 5530 5528 5527 5525